Year,Month,Day,Hour,Minute,Value (Times are PST for temperature in C)
2011,09,21,00,00,10.90
2011,09,21,00,01,10.90
2011,09,21,00,02,10.90
2011,09,21,00,03,10.90
2011,09,21,00,04,10.90
2011,09,21,00,05,10.90
2011,09,21,00,06,10.80
2011,09,21,00,07,10.80
2011,09,21,00,08,10.80
2011,09,21,00,09,10.80
2011,09,21,00,10,10.80
2011,09,21,00,11,10.70
2011,09,21,00,12,10.70
2011,09,21,00,13,10.70
2011,09,21,00,14,10.70
2011,09,21,00,15,10.60
2011,09,21,00,16,10.60
2011,09,21,00,17,10.60
2011,09,21,00,18,10.60
2011,09,21,00,19,10.60
2011,09,21,00,20,10.50
2011,09,21,00,21,10.50
2011,09,21,00,22,10.50
2011,09,21,00,23,10.50
2011,09,21,00,24,10.50
2011,09,21,00,25,10.50
2011,09,21,00,26,10.40
2011,09,21,00,27,10.40
2011,09,21,00,28,10.40
2011,09,21,00,29,10.40
2011,09,21,00,30,10.40
2011,09,21,00,31,10.40
2011,09,21,00,32,10.40
2011,09,21,00,33,10.40
2011,09,21,00,34,10.40
2011,09,21,00,35,10.30
2011,09,21,00,36,10.30
2011,09,21,00,37,10.30
2011,09,21,00,38,10.30
2011,09,21,00,39,10.30
2011,09,21,00,40,10.30
2011,09,21,00,41,10.30
2011,09,21,00,42,10.30
2011,09,21,00,43,10.30
2011,09,21,00,44,10.30
2011,09,21,00,45,10.30
2011,09,21,00,46,10.30
2011,09,21,00,47,10.30
2011,09,21,00,48,10.30
2011,09,21,00,49,10.40
2011,09,21,00,50,10.40
2011,09,21,00,51,10.40
2011,09,21,00,52,10.40
2011,09,21,00,53,10.40
2011,09,21,00,54,10.40
2011,09,21,00,55,10.40
2011,09,21,00,56,10.50
2011,09,21,00,57,10.50
2011,09,21,00,58,10.50
2011,09,21,00,59,10.60
2011,09,21,01,00,10.60
2011,09,21,01,01,10.60
2011,09,21,01,02,10.60
2011,09,21,01,03,10.60
2011,09,21,01,04,10.60
2011,09,21,01,05,10.60
2011,09,21,01,06,10.60
2011,09,21,01,07,10.60
2011,09,21,01,08,10.60
2011,09,21,01,09,10.60
2011,09,21,01,10,10.60
2011,09,21,01,11,10.70
2011,09,21,01,12,10.70
2011,09,21,01,13,10.70
2011,09,21,01,14,10.70
2011,09,21,01,15,10.70
2011,09,21,01,16,10.70
2011,09,21,01,17,10.70
2011,09,21,01,18,10.80
2011,09,21,01,19,10.80
2011,09,21,01,20,10.80
2011,09,21,01,21,10.80
2011,09,21,01,22,10.80
2011,09,21,01,23,10.80
2011,09,21,01,24,10.90
2011,09,21,01,25,10.90
2011,09,21,01,26,10.90
2011,09,21,01,27,10.90
2011,09,21,01,28,10.90
2011,09,21,01,29,10.90
2011,09,21,01,30,11.00
2011,09,21,01,31,11.00
2011,09,21,01,32,11.00
2011,09,21,01,33,11.00
2011,09,21,01,34,11.10
2011,09,21,01,35,11.10
2011,09,21,01,36,11.10
2011,09,21,01,37,11.10
2011,09,21,01,38,11.10
2011,09,21,01,39,11.10
2011,09,21,01,40,11.10
2011,09,21,01,41,11.10
2011,09,21,01,42,11.10
2011,09,21,01,43,11.10
2011,09,21,01,44,11.10
2011,09,21,01,45,11.10
2011,09,21,01,46,11.10
2011,09,21,01,47,11.10
2011,09,21,01,48,11.10
2011,09,21,01,49,11.10
2011,09,21,01,50,11.20
2011,09,21,01,51,11.20
2011,09,21,01,52,11.20
2011,09,21,01,53,11.20
2011,09,21,01,54,11.20
2011,09,21,01,55,11.20
2011,09,21,01,56,11.20
2011,09,21,01,57,11.20
2011,09,21,01,58,11.20
2011,09,21,01,59,11.30
2011,09,21,02,00,11.30
2011,09,21,02,01,11.30
2011,09,21,02,02,11.30
2011,09,21,02,03,11.30
2011,09,21,02,04,11.30
2011,09,21,02,05,11.30
2011,09,21,02,06,11.40
2011,09,21,02,07,11.40
2011,09,21,02,08,11.40
2011,09,21,02,09,11.40
2011,09,21,02,10,11.40
2011,09,21,02,11,11.40
2011,09,21,02,12,11.40
2011,09,21,02,13,11.40
2011,09,21,02,14,11.40
2011,09,21,02,15,11.40
2011,09,21,02,16,11.40
2011,09,21,02,17,11.40
2011,09,21,02,18,11.40
2011,09,21,02,19,11.40
2011,09,21,02,20,11.40
2011,09,21,02,21,11.40
2011,09,21,02,22,11.40
2011,09,21,02,23,11.40
2011,09,21,02,24,11.40
2011,09,21,02,25,11.40
2011,09,21,02,26,11.50
2011,09,21,02,27,11.50
2011,09,21,02,28,11.50
2011,09,21,02,29,11.60
2011,09,21,02,30,11.60
2011,09,21,02,31,11.60
2011,09,21,02,32,11.60
2011,09,21,02,33,11.60
2011,09,21,02,34,11.60
2011,09,21,02,35,11.60
2011,09,21,02,36,11.70
2011,09,21,02,37,11.70
2011,09,21,02,38,11.70
2011,09,21,02,39,11.70
2011,09,21,02,40,11.80
2011,09,21,02,41,11.80
2011,09,21,02,42,11.80
2011,09,21,02,43,11.80
2011,09,21,02,44,11.80
2011,09,21,02,45,11.80
2011,09,21,02,46,11.90
2011,09,21,02,47,11.90
2011,09,21,02,48,11.90
2011,09,21,02,49,11.90
2011,09,21,02,50,11.90
2011,09,21,02,51,11.90
2011,09,21,02,52,12.00
2011,09,21,02,53,12.00
2011,09,21,02,54,12.00
2011,09,21,02,55,12.10
2011,09,21,02,56,12.10
2011,09,21,02,57,12.10
2011,09,21,02,58,12.10
2011,09,21,02,59,12.10
2011,09,21,03,00,12.10
2011,09,21,03,01,12.10
2011,09,21,03,02,12.10
2011,09,21,03,03,12.10
2011,09,21,03,04,12.10
2011,09,21,03,05,12.10
2011,09,21,03,06,12.10
2011,09,21,03,07,12.10
2011,09,21,03,08,12.10
2011,09,21,03,09,12.10
2011,09,21,03,10,12.10
2011,09,21,03,11,12.10
2011,09,21,03,12,12.10
2011,09,21,03,13,12.10
2011,09,21,03,14,12.10
2011,09,21,03,15,12.10
2011,09,21,03,16,12.10
2011,09,21,03,17,12.00
2011,09,21,03,18,12.00
2011,09,21,03,19,12.00
2011,09,21,03,20,12.00
2011,09,21,03,21,12.00
2011,09,21,03,22,11.90
2011,09,21,03,23,11.90
2011,09,21,03,24,11.90
2011,09,21,03,25,11.90
2011,09,21,03,26,11.90
2011,09,21,03,27,11.80
2011,09,21,03,28,11.80
2011,09,21,03,29,11.80
2011,09,21,03,30,11.80
2011,09,21,03,31,11.80
2011,09,21,03,32,11.80
2011,09,21,03,33,11.70
2011,09,21,03,34,11.70
2011,09,21,03,35,11.70
2011,09,21,03,36,11.70
2011,09,21,03,37,11.70
2011,09,21,03,38,11.70
2011,09,21,03,39,11.70
2011,09,21,03,40,11.60
2011,09,21,03,41,11.60
2011,09,21,03,42,11.60
2011,09,21,03,43,11.60
2011,09,21,03,44,11.60
2011,09,21,03,45,11.60
2011,09,21,03,46,11.60
2011,09,21,03,47,11.60
2011,09,21,03,48,11.60
2011,09,21,03,49,11.60
2011,09,21,03,50,11.50
2011,09,21,03,51,11.60
2011,09,21,03,52,11.60
2011,09,21,03,53,11.60
2011,09,21,03,54,11.60
2011,09,21,03,55,11.70
2011,09,21,03,56,11.70
2011,09,21,03,57,11.80
2011,09,21,03,58,11.80
2011,09,21,03,59,11.90
2011,09,21,04,00,11.90
2011,09,21,04,01,12.00
2011,09,21,04,02,12.00
2011,09,21,04,03,12.00
2011,09,21,04,04,12.00
2011,09,21,04,05,12.10
2011,09,21,04,06,12.00
2011,09,21,04,07,12.00
2011,09,21,04,08,12.00
2011,09,21,04,09,12.00
2011,09,21,04,10,11.90
2011,09,21,04,11,11.90
2011,09,21,04,12,11.90
2011,09,21,04,13,11.90
2011,09,21,04,14,11.90
2011,09,21,04,15,11.90
2011,09,21,04,16,11.90
2011,09,21,04,17,11.80
2011,09,21,04,18,11.80
2011,09,21,04,19,11.80
2011,09,21,04,20,11.80
2011,09,21,04,21,11.80
2011,09,21,04,22,11.80
2011,09,21,04,23,11.80
2011,09,21,04,24,11.80
2011,09,21,04,25,11.80
2011,09,21,04,26,11.80
2011,09,21,04,27,11.80
2011,09,21,04,28,11.80
2011,09,21,04,29,11.80
2011,09,21,04,30,11.80
2011,09,21,04,31,11.80
2011,09,21,04,32,11.80
2011,09,21,04,33,11.80
2011,09,21,04,34,11.80
2011,09,21,04,35,11.80
2011,09,21,04,36,11.80
2011,09,21,04,37,11.80
2011,09,21,04,38,11.80
2011,09,21,04,39,11.90
2011,09,21,04,40,11.90
2011,09,21,04,41,11.90
2011,09,21,04,42,11.90
2011,09,21,04,43,11.90
2011,09,21,04,44,11.90
2011,09,21,04,45,11.90
2011,09,21,04,46,11.90
2011,09,21,04,47,11.90
2011,09,21,04,48,11.90
2011,09,21,04,49,11.90
2011,09,21,04,50,11.90
2011,09,21,04,51,11.90
2011,09,21,04,52,11.90
2011,09,21,04,53,11.90
2011,09,21,04,54,11.90
2011,09,21,04,55,11.90
2011,09,21,04,56,11.90
2011,09,21,04,57,11.90
2011,09,21,04,58,11.90
2011,09,21,04,59,11.90
2011,09,21,05,00,12.00
2011,09,21,05,01,12.00
2011,09,21,05,02,12.00
2011,09,21,05,03,12.00
2011,09,21,05,04,12.00
2011,09,21,05,05,12.00
2011,09,21,05,06,12.10
2011,09,21,05,07,12.10
2011,09,21,05,08,12.10
2011,09,21,05,09,12.10
2011,09,21,05,10,12.10
2011,09,21,05,11,12.10
2011,09,21,05,12,12.10
2011,09,21,05,13,12.10
2011,09,21,05,14,12.10
2011,09,21,05,15,12.10
2011,09,21,05,16,12.10
2011,09,21,05,17,12.10
2011,09,21,05,18,12.20
2011,09,21,05,19,12.20
2011,09,21,05,20,12.20
2011,09,21,05,21,12.20
2011,09,21,05,22,12.20
2011,09,21,05,23,12.20
2011,09,21,05,24,12.20
2011,09,21,05,25,12.20
2011,09,21,05,26,12.20
2011,09,21,05,27,12.20
2011,09,21,05,28,12.20
2011,09,21,05,29,12.20
2011,09,21,05,30,12.20
2011,09,21,05,31,12.30
2011,09,21,05,32,12.30
2011,09,21,05,33,12.30
2011,09,21,05,34,12.30
2011,09,21,05,35,12.30
2011,09,21,05,36,12.30
2011,09,21,05,37,12.30
2011,09,21,05,38,12.30
2011,09,21,05,39,12.30
2011,09,21,05,40,12.30
2011,09,21,05,41,12.30
2011,09,21,05,42,12.30
2011,09,21,05,43,12.30
2011,09,21,05,44,12.30
2011,09,21,05,45,12.30
2011,09,21,05,46,12.30
2011,09,21,05,47,12.30
2011,09,21,05,48,12.30
2011,09,21,05,49,12.30
2011,09,21,05,50,12.30
2011,09,21,05,51,12.30
2011,09,21,05,52,12.30
2011,09,21,05,53,12.30
2011,09,21,05,54,12.30
2011,09,21,05,55,12.30
2011,09,21,05,56,12.30
2011,09,21,05,57,12.30
2011,09,21,05,58,12.30
2011,09,21,05,59,12.30
2011,09,21,06,00,12.30
2011,09,21,06,01,12.30
2011,09,21,06,02,12.30
2011,09,21,06,03,12.20
2011,09,21,06,04,12.20
2011,09,21,06,05,12.20
2011,09,21,06,06,12.20
2011,09,21,06,07,12.20
2011,09,21,06,08,12.20
2011,09,21,06,09,12.20
2011,09,21,06,10,12.20
2011,09,21,06,11,12.10
2011,09,21,06,12,12.10
2011,09,21,06,13,12.10
2011,09,21,06,14,12.10
2011,09,21,06,15,12.10
2011,09,21,06,16,12.10
2011,09,21,06,17,12.00
2011,09,21,06,18,12.00
2011,09,21,06,19,12.00
2011,09,21,06,20,12.00
2011,09,21,06,21,11.90
2011,09,21,06,22,11.90
2011,09,21,06,23,11.90
2011,09,21,06,24,11.90
2011,09,21,06,25,11.90
2011,09,21,06,26,11.90
2011,09,21,06,27,11.90
2011,09,21,06,28,11.80
2011,09,21,06,29,11.80
2011,09,21,06,30,11.80
2011,09,21,06,31,11.80
2011,09,21,06,32,11.80
2011,09,21,06,33,11.80
2011,09,21,06,34,11.80
2011,09,21,06,35,11.80
2011,09,21,06,36,11.80
2011,09,21,06,37,11.80
2011,09,21,06,38,11.70
2011,09,21,06,39,11.70
2011,09,21,06,40,11.70
2011,09,21,06,41,11.70
2011,09,21,06,42,11.70
2011,09,21,06,43,11.70
2011,09,21,06,44,11.70
2011,09,21,06,45,11.70
2011,09,21,06,46,11.70
2011,09,21,06,47,11.70
2011,09,21,06,48,11.70
2011,09,21,06,49,11.70
2011,09,21,06,50,11.70
2011,09,21,06,51,11.70
2011,09,21,06,52,11.70
2011,09,21,06,53,11.70
2011,09,21,06,54,11.70
2011,09,21,06,55,11.70
2011,09,21,06,56,11.70
2011,09,21,06,57,11.70
2011,09,21,06,58,11.80
2011,09,21,06,59,11.80
2011,09,21,07,00,11.80
2011,09,21,07,01,11.80
2011,09,21,07,02,11.80
2011,09,21,07,03,11.80
2011,09,21,07,04,11.80
2011,09,21,07,05,11.80
2011,09,21,07,06,11.80
2011,09,21,07,07,11.80
2011,09,21,07,08,11.80
2011,09,21,07,09,11.80
2011,09,21,07,10,11.80
2011,09,21,07,11,11.80
2011,09,21,07,12,11.80
2011,09,21,07,13,11.80
2011,09,21,07,14,11.80
2011,09,21,07,15,11.80
2011,09,21,07,16,11.80
2011,09,21,07,17,11.80
2011,09,21,07,18,11.80
2011,09,21,07,19,11.80
2011,09,21,07,20,11.90
2011,09,21,07,21,11.90
2011,09,21,07,22,11.90
2011,09,21,07,23,11.90
2011,09,21,07,24,11.90
2011,09,21,07,25,11.90
2011,09,21,07,26,11.90
2011,09,21,07,27,12.00
2011,09,21,07,28,12.00
2011,09,21,07,29,12.00
2011,09,21,07,30,12.00
2011,09,21,07,31,12.10
2011,09,21,07,32,12.10
2011,09,21,07,33,12.10
2011,09,21,07,34,12.10
2011,09,21,07,35,12.10
2011,09,21,07,36,12.10
2011,09,21,07,37,12.10
2011,09,21,07,38,12.10
2011,09,21,07,39,12.20
2011,09,21,07,40,12.20
2011,09,21,07,41,12.20
2011,09,21,07,42,12.20
2011,09,21,07,43,12.20
2011,09,21,07,44,12.20
2011,09,21,07,45,12.20
2011,09,21,07,46,12.30
2011,09,21,07,47,12.30
2011,09,21,07,48,12.30
2011,09,21,07,49,12.30
2011,09,21,07,50,12.30
2011,09,21,07,51,12.30
2011,09,21,07,52,12.40
2011,09,21,07,53,12.40
2011,09,21,07,54,12.40
2011,09,21,07,55,12.40
2011,09,21,07,56,12.40
2011,09,21,07,57,12.50
2011,09,21,07,58,12.50
2011,09,21,07,59,12.60
2011,09,21,08,00,12.60
2011,09,21,08,01,12.60
2011,09,21,08,02,12.60
2011,09,21,08,03,12.70
2011,09,21,08,04,12.70
2011,09,21,08,05,12.70
2011,09,21,08,06,12.70
2011,09,21,08,07,12.80
2011,09,21,08,08,12.80
2011,09,21,08,09,12.80
2011,09,21,08,10,12.80
2011,09,21,08,11,12.90
2011,09,21,08,12,12.90
2011,09,21,08,13,13.00
2011,09,21,08,14,13.00
2011,09,21,08,15,13.00
2011,09,21,08,16,13.10
2011,09,21,08,17,13.10
2011,09,21,08,18,13.20
2011,09,21,08,19,13.20
2011,09,21,08,20,13.20
2011,09,21,08,21,13.30
2011,09,21,08,22,13.30
2011,09,21,08,23,13.30
2011,09,21,08,24,13.40
2011,09,21,08,25,13.40
2011,09,21,08,26,13.40
2011,09,21,08,27,13.50
2011,09,21,08,28,13.50
2011,09,21,08,29,13.50
2011,09,21,08,30,13.60
2011,09,21,08,31,13.60
2011,09,21,08,32,13.60
2011,09,21,08,33,13.60
2011,09,21,08,34,13.60
2011,09,21,08,35,13.70
2011,09,21,08,36,13.70
2011,09,21,08,37,13.70
2011,09,21,08,38,13.70
2011,09,21,08,39,13.80
2011,09,21,08,40,13.80
2011,09,21,08,41,13.80
2011,09,21,08,42,13.90
2011,09,21,08,43,13.90
2011,09,21,08,44,13.90
2011,09,21,08,45,13.90
2011,09,21,08,46,14.00
2011,09,21,08,48,14.00
2011,09,21,08,49,14.00
2011,09,21,08,50,14.10
2011,09,21,08,51,14.10
2011,09,21,08,52,14.10
2011,09,21,08,53,14.20
2011,09,21,08,54,14.20
2011,09,21,08,55,14.20
2011,09,21,08,56,14.20
2011,09,21,08,57,14.20
2011,09,21,08,58,14.20
2011,09,21,08,59,14.30
2011,09,21,09,00,14.30
2011,09,21,09,01,14.30
2011,09,21,09,02,14.30
2011,09,21,09,03,14.30
2011,09,21,09,04,14.30
2011,09,21,09,05,14.40
2011,09,21,09,06,14.40
2011,09,21,09,07,14.40
2011,09,21,09,08,14.40
2011,09,21,09,09,14.40
2011,09,21,09,10,14.50
2011,09,21,09,11,14.50
2011,09,21,09,12,14.50
2011,09,21,09,13,14.50
2011,09,21,09,14,14.50
2011,09,21,09,15,14.60
2011,09,21,09,16,14.60
2011,09,21,09,17,14.60
2011,09,21,09,18,14.60
2011,09,21,09,19,14.60
2011,09,21,09,20,14.70
2011,09,21,09,21,14.70
2011,09,21,09,22,14.70
2011,09,21,09,23,14.70
2011,09,21,09,24,14.80
2011,09,21,09,25,14.80
2011,09,21,09,26,14.80
2011,09,21,09,27,14.90
2011,09,21,09,28,14.90
2011,09,21,09,29,14.90
2011,09,21,09,30,15.00
2011,09,21,09,31,15.00
2011,09,21,09,32,15.00
2011,09,21,09,33,15.00
2011,09,21,09,34,15.00
2011,09,21,09,35,15.00
2011,09,21,09,36,15.00
2011,09,21,09,37,15.00
2011,09,21,09,38,15.00
2011,09,21,09,39,15.10
2011,09,21,09,40,15.10
2011,09,21,09,41,15.20
2011,09,21,09,42,15.20
2011,09,21,09,43,15.20
2011,09,21,09,44,15.30
2011,09,21,09,45,15.30
2011,09,21,09,46,15.30
2011,09,21,09,47,15.30
2011,09,21,09,48,15.40
2011,09,21,09,49,15.40
2011,09,21,09,50,15.40
2011,09,21,09,51,15.50
2011,09,21,09,52,15.50
2011,09,21,09,53,15.60
2011,09,21,09,54,15.60
2011,09,21,09,55,15.60
2011,09,21,09,56,15.70
2011,09,21,09,57,15.80
2011,09,21,09,58,15.80
2011,09,21,09,59,15.80
2011,09,21,10,00,15.90
2011,09,21,10,01,15.90
2011,09,21,10,02,16.00
2011,09,21,10,03,16.00
2011,09,21,10,04,16.10
2011,09,21,10,05,16.10
2011,09,21,10,06,16.10
2011,09,21,10,07,16.10
2011,09,21,10,08,16.20
2011,09,21,10,09,16.20
2011,09,21,10,10,16.20
2011,09,21,10,11,16.20
2011,09,21,10,12,16.30
2011,09,21,10,13,16.30
2011,09,21,10,14,16.30
2011,09,21,10,15,16.30
2011,09,21,10,16,16.30
2011,09,21,10,17,16.40
2011,09,21,10,18,16.40
2011,09,21,10,19,16.40
2011,09,21,10,20,16.50
2011,09,21,10,21,16.50
2011,09,21,10,22,16.50
2011,09,21,10,23,16.60
2011,09,21,10,24,16.60
2011,09,21,10,25,16.70
2011,09,21,10,26,16.70
2011,09,21,10,27,16.80
2011,09,21,10,28,16.80
2011,09,21,10,29,16.80
2011,09,21,10,30,16.80
2011,09,21,10,31,16.80
2011,09,21,10,32,16.80
2011,09,21,10,33,16.80
2011,09,21,10,34,16.80
2011,09,21,10,35,16.80
2011,09,21,10,36,16.80
2011,09,21,10,37,16.80
2011,09,21,10,38,16.80
2011,09,21,10,39,16.90
2011,09,21,10,40,16.90
2011,09,21,10,41,17.00
2011,09,21,10,42,17.00
2011,09,21,10,43,17.10
2011,09,21,10,44,17.20
2011,09,21,10,45,17.30
2011,09,21,10,46,17.40
2011,09,21,10,47,17.50
2011,09,21,10,48,17.60
2011,09,21,10,49,17.60
2011,09,21,10,50,17.60
2011,09,21,10,51,17.60
2011,09,21,10,52,17.70
2011,09,21,10,53,17.70
2011,09,21,10,54,17.70
2011,09,21,10,55,17.70
2011,09,21,10,56,17.70
2011,09,21,10,57,17.80
2011,09,21,10,58,17.80
2011,09,21,10,59,17.90
2011,09,21,11,00,17.90
2011,09,21,11,01,17.90
2011,09,21,11,02,17.90
2011,09,21,11,03,17.90
2011,09,21,11,04,17.90
2011,09,21,11,05,17.90
2011,09,21,11,06,17.90
2011,09,21,11,07,17.90
2011,09,21,11,08,17.90
2011,09,21,11,09,18.00
2011,09,21,11,10,18.10
2011,09,21,11,11,18.10
2011,09,21,11,12,18.20
2011,09,21,11,13,18.30
2011,09,21,11,14,18.40
2011,09,21,11,15,18.50
2011,09,21,11,16,18.50
2011,09,21,11,17,18.60
2011,09,21,11,18,18.70
2011,09,21,11,19,18.80
2011,09,21,11,20,18.90
2011,09,21,11,21,18.90
2011,09,21,11,22,18.90
2011,09,21,11,23,18.90
2011,09,21,11,24,18.90
2011,09,21,11,25,18.90
2011,09,21,11,26,18.90
2011,09,21,11,27,19.00
2011,09,21,11,28,19.10
2011,09,21,11,29,19.10
2011,09,21,11,30,19.10
2011,09,21,11,31,19.10
2011,09,21,11,32,19.10
2011,09,21,11,33,19.00
2011,09,21,11,34,19.00
2011,09,21,11,35,19.10
2011,09,21,11,36,19.10
2011,09,21,11,37,19.10
2011,09,21,11,38,19.20
2011,09,21,11,39,19.30
2011,09,21,11,40,19.30
2011,09,21,11,41,19.40
2011,09,21,11,42,19.50
2011,09,21,11,43,19.60
2011,09,21,11,44,19.70
2011,09,21,11,45,19.80
2011,09,21,11,46,19.90
2011,09,21,11,47,20.00
2011,09,21,11,48,20.00
2011,09,21,11,49,20.00
2011,09,21,11,50,20.00
2011,09,21,11,51,20.00
2011,09,21,11,52,20.00
2011,09,21,11,53,20.00
2011,09,21,11,54,20.00
2011,09,21,11,55,20.10
2011,09,21,11,56,20.10
2011,09,21,11,57,20.10
2011,09,21,11,58,20.20
2011,09,21,11,59,20.20
2011,09,21,12,00,20.20
2011,09,21,12,01,20.20
2011,09,21,12,02,20.20
2011,09,21,12,03,20.20
2011,09,21,12,04,20.20
2011,09,21,12,05,20.20
2011,09,21,12,06,20.20
2011,09,21,12,07,20.10
2011,09,21,12,08,20.10
2011,09,21,12,09,20.10
2011,09,21,12,10,20.00
2011,09,21,12,11,19.90
2011,09,21,12,12,19.70
2011,09,21,12,13,19.50
2011,09,21,12,14,19.40
2011,09,21,12,15,19.40
2011,09,21,12,16,19.30
2011,09,21,12,17,19.30
2011,09,21,12,18,19.30
2011,09,21,12,19,19.20
2011,09,21,12,20,19.20
2011,09,21,12,21,19.20
2011,09,21,12,22,19.20
2011,09,21,12,23,19.20
2011,09,21,12,24,19.20
2011,09,21,12,25,19.10
2011,09,21,12,26,19.10
2011,09,21,12,27,19.10
2011,09,21,12,28,19.00
2011,09,21,12,29,19.00
2011,09,21,12,30,18.90
2011,09,21,12,31,18.90
2011,09,21,12,32,18.90
2011,09,21,12,33,18.90
2011,09,21,12,34,18.80
2011,09,21,12,35,18.70
2011,09,21,12,36,18.60
2011,09,21,12,37,18.60
2011,09,21,12,38,18.50
2011,09,21,12,39,18.50
2011,09,21,12,40,18.40
2011,09,21,12,41,18.40
2011,09,21,12,42,18.40
2011,09,21,12,43,18.40
2011,09,21,12,44,18.40
2011,09,21,12,45,18.40
2011,09,21,12,46,18.30
2011,09,21,12,47,18.30
2011,09,21,12,48,18.20
2011,09,21,12,49,18.20
2011,09,21,12,50,18.10
2011,09,21,12,51,18.10
2011,09,21,12,52,18.10
2011,09,21,12,53,18.10
2011,09,21,12,54,18.10
2011,09,21,12,55,18.00
2011,09,21,12,56,18.00
2011,09,21,12,57,18.00
2011,09,21,12,58,18.00
2011,09,21,12,59,17.90
2011,09,21,13,00,17.90
2011,09,21,13,01,17.90
2011,09,21,13,02,17.80
2011,09,21,13,03,17.70
2011,09,21,13,04,17.70
2011,09,21,13,05,17.60
2011,09,21,13,06,17.60
2011,09,21,13,07,17.60
2011,09,21,13,08,17.50
2011,09,21,13,09,17.50
2011,09,21,13,10,17.40
2011,09,21,13,11,17.40
2011,09,21,13,12,17.40
2011,09,21,13,13,17.40
2011,09,21,13,14,17.40
2011,09,21,13,15,17.40
2011,09,21,13,16,17.40
2011,09,21,13,17,17.30
2011,09,21,13,18,17.30
2011,09,21,13,19,17.30
2011,09,21,13,20,17.30
2011,09,21,13,21,17.30
2011,09,21,13,22,17.30
2011,09,21,13,23,17.30
2011,09,21,13,24,17.30
2011,09,21,13,25,17.30
2011,09,21,13,26,17.30
2011,09,21,13,27,17.30
2011,09,21,13,28,17.30
2011,09,21,13,29,17.30
2011,09,21,13,30,17.30
2011,09,21,13,31,17.30
2011,09,21,13,32,17.30
2011,09,21,13,33,17.30
2011,09,21,13,34,17.30
2011,09,21,13,35,17.40
2011,09,21,13,36,17.40
2011,09,21,13,37,17.40
2011,09,21,13,38,17.50
2011,09,21,13,39,17.50
2011,09,21,13,40,17.50
2011,09,21,13,41,17.50
2011,09,21,13,42,17.50
2011,09,21,13,43,17.50
2011,09,21,13,44,17.50
2011,09,21,13,45,17.40
2011,09,21,13,46,17.50
2011,09,21,13,47,17.50
2011,09,21,13,48,17.50
2011,09,21,13,49,17.50
2011,09,21,13,50,17.50
2011,09,21,13,51,17.50
2011,09,21,13,52,17.60
2011,09,21,13,53,17.60
2011,09,21,13,54,17.60
2011,09,21,13,55,17.60
2011,09,21,13,56,17.70
2011,09,21,13,57,17.70
2011,09,21,13,58,17.70
2011,09,21,13,59,17.70
2011,09,21,14,00,17.80
2011,09,21,14,01,17.80
2011,09,21,14,02,17.80
2011,09,21,14,03,17.80
2011,09,21,14,04,17.80
2011,09,21,14,05,17.80
2011,09,21,14,06,17.80
2011,09,21,14,07,17.80
2011,09,21,14,08,17.80
2011,09,21,14,09,17.80
2011,09,21,14,10,17.80
2011,09,21,14,11,17.90
2011,09,21,14,12,17.90
2011,09,21,14,13,17.90
2011,09,21,14,14,17.90
2011,09,21,14,15,17.90
2011,09,21,14,16,17.90
2011,09,21,14,17,17.90
2011,09,21,14,18,17.90
2011,09,21,14,19,17.90
2011,09,21,14,20,17.90
2011,09,21,14,21,17.90
2011,09,21,14,22,17.90
2011,09,21,14,23,17.90
2011,09,21,14,24,17.90
2011,09,21,14,25,17.90
2011,09,21,14,26,17.80
2011,09,21,14,27,17.90
2011,09,21,14,28,17.90
2011,09,21,14,29,17.90
2011,09,21,14,30,18.00
2011,09,21,14,31,18.00
2011,09,21,14,32,18.00
2011,09,21,14,33,18.00
2011,09,21,14,34,18.00
2011,09,21,14,35,18.00
2011,09,21,14,36,18.00
2011,09,21,14,37,18.00
2011,09,21,14,38,18.00
2011,09,21,14,39,18.00
2011,09,21,14,40,18.00
2011,09,21,14,41,18.10
2011,09,21,14,42,18.10
2011,09,21,14,43,18.20
2011,09,21,14,44,18.30
2011,09,21,14,45,18.30
2011,09,21,14,46,18.30
2011,09,21,14,47,18.40
2011,09,21,14,48,18.40
2011,09,21,14,49,18.50
2011,09,21,14,50,18.60
2011,09,21,14,51,18.60
2011,09,21,14,52,18.60
2011,09,21,14,53,18.60
2011,09,21,14,54,18.60
2011,09,21,14,55,18.60
2011,09,21,14,56,18.60
2011,09,21,14,57,18.60
2011,09,21,14,58,18.60
2011,09,21,14,59,18.70
2011,09,21,15,00,18.70
2011,09,21,15,01,18.80
2011,09,21,15,02,18.80
2011,09,21,15,03,18.90
2011,09,21,15,04,18.90
2011,09,21,15,05,18.90
2011,09,21,15,06,18.90
2011,09,21,15,07,19.00
2011,09,21,15,08,19.10
2011,09,21,15,09,19.20
2011,09,21,15,10,19.20
2011,09,21,15,11,19.30
2011,09,21,15,12,19.30
2011,09,21,15,13,19.30
2011,09,21,15,14,19.40
2011,09,21,15,15,19.40
2011,09,21,15,16,19.50
2011,09,21,15,17,19.50
2011,09,21,15,18,19.60
2011,09,21,15,19,19.60
2011,09,21,15,20,19.60
2011,09,21,15,21,19.60
2011,09,21,15,22,19.70
2011,09,21,15,23,19.70
2011,09,21,15,24,19.70
2011,09,21,15,25,19.70
2011,09,21,15,26,19.80
2011,09,21,15,27,19.90
2011,09,21,15,28,19.90
2011,09,21,15,29,19.90
2011,09,21,15,30,19.90
2011,09,21,15,31,19.90
2011,09,21,15,32,19.90
2011,09,21,15,33,19.90
2011,09,21,15,34,19.90
2011,09,21,15,35,19.90
2011,09,21,15,36,19.90
2011,09,21,15,37,19.90
2011,09,21,15,38,19.90
2011,09,21,15,39,19.90
2011,09,21,15,40,20.00
2011,09,21,15,41,20.00
2011,09,21,15,42,20.10
2011,09,21,15,43,20.10
2011,09,21,15,44,20.10
2011,09,21,15,45,20.10
2011,09,21,15,46,20.10
2011,09,21,15,47,20.20
2011,09,21,15,48,20.20
2011,09,21,15,49,20.20
2011,09,21,15,50,20.20
2011,09,21,15,51,20.20
2011,09,21,15,52,20.20
2011,09,21,15,53,20.30
2011,09,21,15,54,20.30
2011,09,21,15,55,20.30
2011,09,21,15,56,20.40
2011,09,21,15,57,20.40
2011,09,21,15,58,20.50
2011,09,21,15,59,20.50
2011,09,21,16,00,20.60
2011,09,21,16,01,20.60
2011,09,21,16,02,20.60
2011,09,21,16,03,20.70
2011,09,21,16,04,20.70
2011,09,21,16,05,20.70
2011,09,21,16,06,20.70
2011,09,21,16,07,20.70
2011,09,21,16,08,20.70
2011,09,21,16,09,20.70
2011,09,21,16,10,20.70
2011,09,21,16,11,20.70
2011,09,21,16,12,20.70
2011,09,21,16,13,20.70
2011,09,21,16,14,20.60
2011,09,21,16,15,20.60
2011,09,21,16,16,20.60
2011,09,21,16,17,20.50
2011,09,21,16,18,20.50
2011,09,21,16,19,20.50
2011,09,21,16,20,20.50
2011,09,21,16,21,20.50
2011,09,21,16,22,20.50
2011,09,21,16,23,20.50
2011,09,21,16,24,20.50
2011,09,21,16,25,20.50
2011,09,21,16,26,20.50
2011,09,21,16,27,20.50
2011,09,21,16,28,20.50
2011,09,21,16,29,20.60
2011,09,21,16,30,20.60
2011,09,21,16,31,20.50
2011,09,21,16,32,20.50
2011,09,21,16,33,20.50
2011,09,21,16,34,20.50
2011,09,21,16,35,20.50
2011,09,21,16,36,20.50
2011,09,21,16,37,20.50
2011,09,21,16,38,20.50
2011,09,21,16,39,20.40
2011,09,21,16,40,20.40
2011,09,21,16,41,20.40
2011,09,21,16,42,20.30
2011,09,21,16,43,20.20
2011,09,21,16,44,20.10
2011,09,21,16,45,20.00
2011,09,21,16,46,19.80
2011,09,21,16,47,19.70
2011,09,21,16,48,19.60
2011,09,21,16,49,19.50
2011,09,21,16,50,19.30
2011,09,21,16,51,19.20
2011,09,21,16,52,19.10
2011,09,21,16,53,19.00
2011,09,21,16,54,18.90
2011,09,21,16,55,18.90
2011,09,21,16,56,18.80
2011,09,21,16,57,18.80
2011,09,21,16,58,18.70
2011,09,21,16,59,18.70
2011,09,21,17,00,18.70
2011,09,21,17,01,18.60
2011,09,21,17,02,18.60
2011,09,21,17,03,18.60
2011,09,21,17,04,18.50
2011,09,21,17,05,18.50
2011,09,21,17,06,18.40
2011,09,21,17,07,18.40
2011,09,21,17,08,18.40
2011,09,21,17,09,18.40
2011,09,21,17,10,18.30
2011,09,21,17,11,18.30
2011,09,21,17,12,18.30
2011,09,21,17,13,18.30
2011,09,21,17,14,18.30
2011,09,21,17,15,18.30
2011,09,21,17,16,18.30
2011,09,21,17,17,18.30
2011,09,21,17,18,18.30
2011,09,21,17,19,18.30
2011,09,21,17,20,18.30